Airfield :
LOGIN :

Register | Disclaimer

   EN    FR    IT 

 










Legend :    VFR   Marginal VFR   IFR   Intensive IFR   Very Intensive IFR
Visi :
Ceiling :
>= 8 km
>= 3000ft
5 to 8 km
1000 to 3000 ft
1500m to 5 km
500 to 1000 ft
800 to 1500m
200 to 500 ft
< 800m
< 200 ft
Symbols :   Thunderstorms  Fog  Heavy snow  Heavy precipitations  Wind > 20 kt
SIGMETs :     Misc.  Thunderstorms  Icing  Turbulence  Mountain Waves  Volcanic Ashes







- Airport Elevation : 13 ft
- IATA code : CAG


LIEE - Cagliari Elmas

CURRENT METAR :
  • 170720Z 31007KT CAVOK 28/16 Q1016

EXPIRED METARs :
  • 170650Z 32008KT CAVOK 26/16 Q1016
  • 170620Z 32007KT CAVOK 24/17 Q1016
  • 170550Z 32005KT CAVOK 23/16 Q1016
  • 170520Z 33006KT CAVOK 22/16 Q1016
  • 170450Z 33005KT CAVOK 22/16 Q1016

TAF TAF LIEE
Valid from the 17 at 06:00 until the 18 at 06:00 UTC


170500Z 1706/1806 VRB04KT CAVOK
BECMG 1709/1711 15012KT
BECMG 1718/1720 VRB04KT
No reported NOTAMs for that airfield.



MET'MAP, your aeronautical weather chart ! - Copyright ORBIFLY December 2007 - Disclaimer

ORBIFLY MET'MAP TEAM :

Programming & Development : Alexandra Zaïnal
Concept & Development : Baudouin d'Aumeries
Co-Development & Prog : Marc-Olivier Méhu
Technical & hardware support : Manuel Goepfert

Contact : metmap@orbifly.com




SOURCES & CREDITS :

   NOAA